www.pogodaiklimat.ru
ПОГОДА в Кельце

Архив погоды в Кельце (Польша)

Время
(UTC), дата
16 21.05
17 21.05
18 21.05
19 21.05
20 21.05
21 21.05
22 21.05
23 21.05
00 22.05
01 22.05
02 22.05
03 22.05
04 22.05
05 22.05
06 22.05
07 22.05
08 22.05
09 22.05
10 22.05
11 22.05
12 22.05
13 22.05
14 22.05
15 22.05
16 22.05
17 22.05
18 22.05
19 22.05
20 22.05
21 22.05
22 22.05
23 22.05
00 23.05
01 23.05
02 23.05
03 23.05
04 23.05
05 23.05
06 23.05
07 23.05
08 23.05
09 23.05
10 23.05
11 23.05
12 23.05
13 23.05
14 23.05
15 23.05
16 23.05
17 23.05
18 23.05
19 23.05
20 23.05
21 23.05
22 23.05
23 23.05
00 24.05
01 24.05
02 24.05
03 24.05
04 24.05
05 24.05
06 24.05
07 24.05
08 24.05
09 24.05
10 24.05
11 24.05
12 24.05
13 24.05
14 24.05
15 24.05
16 24.05
17 24.05
18 24.05
19 24.05
20 24.05
21 24.05
22 24.05
23 24.05
00 25.05
01 25.05
02 25.05
03 25.05
04 25.05
05 25.05
06 25.05
07 25.05
08 25.05
09 25.05
10 25.05
11 25.05
12 25.05
13 25.05
14 25.05
15 25.05
16 25.05
17 25.05
18 25.05
19 25.05
20 25.05
21 25.05
22 25.05
23 25.05
00 26.05
01 26.05
02 26.05
03 26.05
04 26.05
05 26.05
06 26.05
07 26.05
08 26.05
09 26.05
10 26.05
11 26.05
12 26.05
13 26.05
14 26.05
15 26.05
16 26.05
17 26.05
18 26.05
19 26.05
20 26.05
21 26.05
22 26.05
23 26.05
00 27.05
01 27.05
02 27.05
03 27.05
04 27.05
05 27.05
06 27.05
07 27.05
08 27.05
09 27.05
10 27.05
11 27.05
12 27.05
13 27.05
14 27.05
15 27.05
16 27.05
17 27.05
18 27.05
19 27.05
20 27.05
21 27.05
22 27.05
23 27.05
00 28.05
01 28.05
02 28.05
03 28.05
04 28.05
05 28.05
06 28.05
07 28.05
08 28.05
09 28.05
10 28.05
11 28.05
12 28.05
13 28.05
14 28.05
15 28.05
Ветер
(напр.,м/с)
Видим. Явления Облачность Т
(С)
Тd
(С)
f
(%)
Тe
(С)
Тes
(С)
Комфортность P
(гПа)
Po
(гПа)
Тmin
(С)
Tmax
(С)
R
(мм)
R24
(мм)
S
(см)
ЮВ 4 {8} 40 км 6/1 1500 м
[Cu med, cong Ac cuf Cs]
+25.3 +11.5 42 +27 +28 жарко 1010.3 980.5
В 2 45 км 6/3 1500 м
[Sc diur, vesp Ac und Ci sp]
+23.7 +11.4 46 +25 +26 комфорт 1010.5 980.6
В 2 {10} 45 км 5/1 1500 м
[Sc diur, vesp Ac trans Ci sp]
+22.2 +11.6 51 +24 +25 комфорт 1010.5 980.4 +18.4 +26.4
В 2 50 км н/о +20.1 +12.6 62 +23 +23 комфорт 1011.0 980.7
В 2 45 км н/о +18.7 +12.4 67 +20 +20 1011.1 980.7
В 3 50 км н/о +18.5 +12.5 68 +19 +19 1011.0 980.5
В 3 50 км н/о +18.7 +12.4 67 +20 +20 1010.5 980.1
В 3 50 км н/о +18.8 +12.3 66 +20 +20 1010.3 979.9
В 2 50 км н/о +17.6 +12.1 70 +18 +18 1010.2 979.7
СВ 1 40 км н/о +16.2 +12.2 77 +17 +17 1010.2 979.5
В 2 40 км н/о +15.7 +12.4 81 +16 +16 1009.9 979.2
СВ 2 45 км н/о +15.9 +12.3 79 +16 +16 1009.6 978.9
В 2 35 км н/о +17.1 +12.6 75 +17 +17 1009.2 978.7
В 2 30 км н/о +18.9 +13.1 69 +20 +20 1009.3 978.9
В 3 35 км 1/0
[Ac cast Ci fib]
+21.0 +13.4 62 +24 +28 комфорт 1008.8 978.7 +15.3 +22.2
ЮВ 3 40 км 1/0
[Ac cast Ci fib]
+23.5 +14.2 56 +26 +33 жарко 1008.7 978.8
В 3 30 км 4/1 1000 м
[Cu hum Ac und]
+24.0 +14.1 54 +26 +33 жарко 1008.6 978.8
Ю 3 29 км 4/1 1000 м
[Cu med, cong Ac trans]
+25.4 +14.5 51 +28 +37 жарко 1008.6 978.9
ЮВ 4 29 км 5/3 1000 м
[Cb calv Ac trans]
+25.1 +13.3 48 +27 +34 жарко 1008.4 978.7
ЮВ 5 27 км 6/5 1000 м
[Cb cap Ac cuf]
+26.1 +14.5 49 +29 +32 жарко 1007.6 978.0
В 3 {11} 16 км гроза, ливневой дождь 9/6 600 м
[Cb cap Ac cuf]
+19.1 +16.1 83 +21 +23 комфорт 1008.9 978.6 0.1
В 2 30 км в посл. час гроза {ливн. дождь} 9/1 600 м
[Cb cap Ac As]
+20.9 +16.3 75 +25 +29 комфорт 1008.4 978.3
В 3 30 км 9/1 600 м
[Cb cap Ac As]
+20.0 +15.8 77 +23 +25 комфорт 1008.5 978.3
В 5 35 км гроза без осадков {ливн. дождь} 9/3 600 м
[Cb cap Ac As]
+20.0 +15.0 73 +22 +23 комфорт 1008.4 978.2
Ю 2 {10} 12 км гроза, ливневой дождь 10/6 300 м
[Cb cap Ac As]
+17.1 +15.3 89 +17 +18 1010.4 979.8
З 1 10 км ливневой дождь, в посл. час гроза 10/4 480 м
[Cb cap Ac As]
+15.8 +14.7 93 +16 +17 1010.7 980.0
ЮВ 2 {10} 30 км в посл. час ливневой дождь {гроза} 10/3 450 м
[Cb cap Ac As]
+16.0 +14.7 92 +16 +16 1010.4 979.7 +15.6 +26.6 5
ЮВ 1 18 км н/о +15.5 +14.7 95 +16 +16 1010.5 979.7
Ю 2 3600 м дымка н/о +14.9 +14.4 97 +15 +15 1010.9 980.1
ЮВ 1 3900 м морось н/о +15.0 +14.5 97 +15 +15 1011.4 980.6
В 1 4800 м в посл. час дождь н/о +14.8 +14.5 98 +15 +15 1011.7 980.8
В 1 5000 м дымка н/о +14.9 +14.6 98 +15 +15 1011.4 980.6
ЮВ 1 3600 м дымка н/о +14.8 +14.5 98 +15 +15 1011.9 981.0 0.2
ЮВ 1 2400 м дымка н/о +15.0 +14.8 99 +15 +15 1012.2 981.3
ЮВ 1 1400 м слаб. дождь н/о +15.2 +15.0 99 +16 +16 1012.2 981.4
Ю 1 1100 м в посл. час дождь н/о +15.3 +15.1 99 +16 +16 1012.6 981.8
Ю 1 2200 м дымка н/о +15.5 +15.3 99 +16 +16 1013.1 982.3
ЮЗ 2 3700 м дымка н/о +15.8 +15.5 98 +16 +16 1013.5 982.7
З 1 6000 м дымка 10/10 180 м
[Sc]
+16.4 +15.3 93 +17 +17 1014.0 983.2 +14.7 +16.5 0.4 5.3
З 2 8000 м дымка 9/9 240 м
[Sc]
+16.8 +15.3 91 +17 +18 1014.3 983.6
ЮЗ 3 15 км 9/9 300 м
[Cu Sc]
+17.4 +15.0 86 +17 +18 1014.6 983.9
З 3 22 км 9/9 360 м
[Cu med, cong]
+18.5 +15.6 83 +19 +21 1015.0 984.4
З 2 30 км 9/9 600 м
[Cu Sc]
+18.6 +14.7 78 +20 +22 1015.3 984.7
З 1 30 км 10/4 600 м
[Cu med, cong Ac As]
+19.6 +15.0 75 +23 +26 комфорт 1015.4 984.9
З 1 10 км ливневой дождь 10/10 600 м
[Cb cap]
+18.2 +14.7 80 +20 +20 1015.6 985.0 0.3
СЗ 1 25 км в посл. час ливневой дождь 9/5 600 м
[Cb calv Ac As]
+18.1 +15.4 84 +19 +23 1015.7 985.1
СВ 1 15 км в посл. час ливневой дождь 9/3 600 м
[Cb calv Ac As]
+17.8 +16.0 89 +19 +22 1016.0 985.3
С 2 28 км {ливн. дождь} 9/4 330 м
[Cb calv Ac As]
+18.7 +15.6 82 +20 +22 1016.2 985.6
СВ 2 30 км 9/3 600 м
[Cb calv Ac As]
+18.1 +15.5 85 +19 +20 1016.1 985.4
С 1 20 км в посл. час ливневой дождь 9/1 1000 м
[Cb calv Ac As]
+17.3 +16.0 92 +18 +19 1016.2 985.5
ЮВ 1 20 км {ливн. дождь} 9/5 1500 м
[Sc Ac trans]
+17.3 +16.2 93 +18 +18 1016.3 985.6 +16.3 +19.7 3
штиль 0 6000 м дымка н/о +16.7 +15.9 95 +17 +17 1017.1 986.3
В 1 3900 м морось н/о +16.3 +15.7 96 +17 +17 1017.7 986.8
В 1 3400 м в посл. час морось н/о +16.1 +15.6 97 +17 +17 1018.2 987.3
В 1 3900 м дымка н/о +15.8 +15.3 97 +16 +16 1018.5 987.5
СВ 1 1800 м дымка н/о +15.4 +15.1 98 +16 +16 1018.5 987.5
штиль 0 200 м туман н/о +14.8 +14.5 98 +14 +14 1018.7 987.6 0.0
В 1 300 м туман н/о +14.3 +14.1 99 +15 +15 1019.0 987.9
СВ 1 400 м туман н/о +14.3 +14.1 99 +15 +15 1018.9 987.8
С 1 300 м туман н/о +14.2 +14.0 99 +14 +14 1019.1 987.9
СВ 1 200 м туман н/о +14.4 +14.2 99 +15 +15 1019.1 988.0
ЮВ 1 100 м туман н/о +15.0 +14.8 99 +15 +15 1019.2 988.1
Ю 1 900 м туман, небо видно 9/9 30 м
[St]
+16.5 +16.5 100 +17 +18 1019.5 988.6 +14.2 +17.3 0.1 3.0
Ю 1 16 км в посл. час туман 6/3 120 м
[Cu med, cong Ac trans]
+17.8 +16.5 92 +19 +24 1019.7 988.9
В 2 40 км 5/1 600 м
[Cu med, cong Ac trans]
+20.2 +15.6 75 +23 +32 комфорт 1019.2 988.7
ЮВ 2 35 км {туман} 3/1 600 м
[Cu med, cong Ac trans]
+22.7 +15.5 64 +27 +38 душно 1018.9 988.6
В 4 35 км 3/3 600 м
[Cu med, cong Ac trans]
+23.2 +14.5 58 +27 +35 душно 1018.8 988.6
Ю 4 35 км 4/3 1000 м
[Cu med, cong Ac trans Ci sp]
+24.7 +14.2 52 +27 +35 жарко 1018.2 988.2
ЮВ 4 {9} 30 км {туман} 4/3 1500 м
[Cu med, cong Ac trans Ci sp]
+25.8 +12.3 43 +27 +34 жарко 1017.6 987.7
ЮВ 5 {9} 30 км 5/4 1000 м
[Cb calv Ci sp]
+26.0 +12.8 44 +28 +32 жарко 1017.2 987.3
В 2 {10} 26 км гроза, ливневой дождь 6/6 1000 м
[Cb cap]
+23.2 +13.1 53 +26 +30 жарко 1017.5 987.3
ЮЗ 5 {10} 40 км в посл. час гроза {ливн. дождь} 8/5 1000 м
[Cb cap Ac cuf]
+19.1 +12.4 65 +20 +21 1019.1 988.5
З 1 35 км 8/5 1000 м
[Cb cap Ac cuf]
+18.4 +13.5 73 +20 +21 1019.6 988.9
С 1 35 км 6/1 600 м
[Cu med, cong Ac trans Cs]
+18.6 +13.0 70 +20 +21 1019.2 988.5
В 1 {10} 50 км {гроза, ливн. дождь} 5/1 1000 м
[Cb calv Ac trans Cs]
+17.8 +13.1 74 +19 +19 1019.3 988.5 +16.2 +26.4 0.0
В 1 30 км н/о +15.9 +12.6 81 +17 +17 1019.4 988.4
В 1 28 км н/о +14.9 +12.8 87 +15 +15 1020.0 988.9
З 1 19 км н/о +13.2 +11.9 92 +13 +13 1021.0 989.7
В 1 10 км н/о +12.4 +11.6 95 +12 +12 1021.3 989.9
СВ 1 12 км н/о +11.9 +11.0 94 +12 +12 1020.8 989.3
В 2 5000 м дымка н/о +11.0 +10.5 97 +10 +10 1020.6 989.1
В 2 11 км дымка н/о +11.4 +10.9 97 +10 +10 1020.5 989.0
С 1 14 км н/о +11.3 +10.5 95 +11 +11 1020.7 989.2
С 1 12 км н/о +11.1 +10.5 96 +11 +11 1021.2 989.6
В 1 22 км н/о +13.2 +12.1 93 +13 +13 1021.1 989.8
ЮЗ 1 30 км н/о +14.0 +12.0 88 +14 +14 1021.1 989.9
ЮВ 2 35 км 3/0
[Ac trans Cs]
+16.6 +12.5 77 +17 +22 1020.8 989.8 +10.7 +17.8 0.0
ЮЗ 1 40 км 3/0
[Ac trans Cs]
+19.0 +11.6 62 +21 +30 комфорт 1020.3 989.6
Ю 2 35 км 3/1 1000 м
[Cu hum Ac trans Cs]
+21.0 +11.9 56 +24 +34 комфорт 1020.1 989.6
Ю 3 40 км 4/1 1000 м
[Cu med, cong Ac trans Ci sp]
+22.1 +12.9 56 +25 +34 комфорт 1020.3 989.9
Ю 4 28 км 4/3 1000 м
[Cu med, cong Ac trans Ci fib]
+23.2 +12.2 50 +26 +33 жарко 1020.0 989.8
ЮЗ 2 40 км 3/1 1000 м
[Cu med, cong Ci sp]
+23.0 +12.9 53 +26 +41 жарко 1020.0 989.7
Ю 3 35 км 3/3 600 м
[Cb cap Ci sp]
+24.0 +11.7 46 +26 +35 жарко 1019.5 989.3
Ю 3 40 км 4/3 600 м
[Cb cap Ac lent Ci ing]
+23.6 +10.6 44 +25 +32 комфорт 1019.2 989.0
Ю 3 35 км 4/3 600 м
[Cb cap Ac lent Ci ing]
+25.0 +11.2 42 +26 +31 жарко 1018.2 988.2
Ю 3 35 км 5/3 600 м
[Cb cap Ac trans Cs]
+25.3 +9.2 36 +26 +29 жарко 1017.9 987.9
Ю 4 40 км 8/3 600 м
[Cb cap Ac trans Cs]
+24.0 +10.3 42 +25 +26 комфорт 1017.9 987.8
Ю 2 45 км 9/3 600 м
[Cb cap Ac trans Cs]
+23.5 +11.5 47 +25 +26 комфорт 1018.2 988.0
ЮЗ 3 {9} 40 км в посл. час гроза 9/3 600 м
[Cb cap Ac cuf Cs]
+20.1 +8.7 48 +22 +22 комфорт 1019.3 988.8 +16.6 +25.5
В 1 50 км н/о +18.1 +9.7 58 +19 +19 1019.8 989.0
ЮЗ 5 11 км ливневой дождь н/о +16.7 +11.0 69 +16 +16 1021.4 990.4
СВ 1 40 км слаб. ливневой дождь н/о +14.6 +12.6 88 +15 +15 1021.3 990.1
СВ 2 45 км н/о +13.9 +12.1 89 +13 +13 1021.1 989.9
В 2 50 км н/о +13.5 +11.0 85 +13 +13 1020.5 989.2
З 1 45 км н/о +12.7 +11.1 90 +13 +13 1020.9 989.5 0.5
СВ 1 19 км н/о +11.6 +10.7 94 +11 +11 1021.0 989.5
В 1 11 км н/о +10.8 +10.2 96 +10 +10 1021.1 989.5
В 2 20 км н/о +10.4 +9.8 96 +9 +9 1021.0 989.4
СВ 1 30 км н/о +12.6 +11.0 90 +13 +13 1021.0 989.6
В 1 40 км н/о +16.6 +11.9 74 +17 +17 1020.9 989.9
В 1 35 км 8/0
[Ac cast Cs]
+17.9 +12.6 71 +19 +23 1020.9 990.1 +10.3 +20.1 0.5 0.5
Ю 2 35 км 5/0
[Ac cast Cc]
+19.6 +13.1 66 +22 +28 комфорт 1021.0 990.4
ЮВ 3 35 км 8/0
[Ac und Ci sp]
+22.6 +13.1 55 +26 +31 жарко 1020.7 990.4
Ю 4 40 км 3/1 1500 м
[Cu hum Ac lent Ci sp]
+24.1 +11.4 45 +26 +34 жарко 1020.7 990.5
Ю 3 40 км 3/1 1500 м
[Cu med, cong Ci fib]
+25.1 +10.9 41 +26 +38 жарко 1020.5 990.4
ЮВ 4-9 {9} 25 км 4/3 2000 м
[Cu med, cong Ci sp]
+25.6 +8.1 33 +26 +34 жарко 1020.2 990.2
Ю 5 {9} 25 км 5/4 600 м
[Cb cap Ac cuf Ci sp]
+26.4 +8.4 32 +26 +31 жарко 1019.7 989.8
В 5 {10} 45 км 6/5 600 м
[Cb cap Ac cuf Ci sp]
+24.9 +10.0 39 +26 +29 жарко 1019.8 989.7
ЮВ 4 45 км 6/3 600 м
[Cb cap Ac cuf Ci ing]
+25.8 +7.4 31 +26 +29 жарко 1019.5 989.5
В 4 {10} 40 км 6/1 600 м
[Cb cap Ac cuf Cs]
+25.8 +7.4 31 +26 +29 жарко 1019.3 989.3
В 3 50 км 9/1 600 м
[Cb cap Ac cuf Cs]
+24.5 +6.3 31 +24 +26 комфорт 1019.6 989.5
В 2 50 км 9/1 1000 м
[Cb calv Cs]
+23.8 +7.4 35 +24 +25 комфорт 1019.9 989.7
СВ 2 {10} 50 км 9/1 1000 м
[Cb calv Ac cuf Cs]
+21.2 +9.1 46 +22 +23 комфорт 1020.4 989.9 +17.9 +27.0
СВ 2 50 км н/о +18.3 +9.9 58 +19 +19 1021.3 990.5
СВ 2 45 км н/о +17.2 +9.6 61 +18 +18 1021.6 990.7
В 2 45 км н/о +16.3 +9.2 63 +16 +16 1021.8 990.8
СВ 1 50 км н/о +15.4 +8.6 64 +16 +16 1022.0 990.9
СВ 2 50 км н/о +14.8 +8.1 64 +15 +15 1022.0 990.8
СВ 2 50 км н/о +13.0 +7.9 71 +12 +12 1022.1 990.7
В 2 50 км н/о +12.1 +7.6 74 +11 +11 1022.1 990.6
СВ 2 50 км н/о +11.5 +7.6 77 +10 +10 1021.9 990.4
СВ 1 45 км н/о +11.6 +6.9 73 +12 +12 1022.1 990.6
В 1 40 км н/о +13.4 +7.8 69 +14 +14 1022.0 990.7
В 1 40 км н/о +17.3 +8.4 56 +18 +18 1021.8 990.9
Ю 2 40 км 1/0
[Ac trans Ci fib]
+20.4 +8.1 45 +22 +27 комфорт 1021.7 991.1 +11.1 +21.2
ЮВ 4 30 км 1/0
[Ac trans Ci sp]
+23.0 +5.0 31 +23 +29 комфорт 1021.4 991.1
ЮВ 4 35 км 1/0
[Ac trans Ci sp]
+24.7 +5.0 28 +24 +32 комфорт 1021.1 991.0
ЮВ 4-9 {9} 40 км 1/0
[Ci sp]
+25.1 +1.9 22 +24 +34 комфорт 1021.0 990.9
Ю 5 {9} 35 км 1/0
[Ac trans Ci sp]
+25.6 +2.3 22 +24 +33 комфорт 1020.7 990.7
ЮВ 4 {8} 40 км 1/0
[Ci sp]
+26.0 +2.6 22 +25 +36 комфорт 1020.3 990.3
ЮВ 4 {9} 35 км 1/1 2000 м
[Cu med, cong Ac trans Ci sp]
+26.4 +1.6 20 +25 +34 комфорт 1019.7 989.8
Ю 5 40 км 1/1 2000 м
[Cu med, cong Ac trans Ci sp]
+26.8 +2.6 21 +25 +32 комфорт 1019.1 989.2
В 4 35 км 1/1 2000 м
[Cu med, cong Ci sp]
+26.5 +3.0 22 +25 +31 комфорт 1018.7 988.8
В 4 35 км 1/1 2000 м
[Cu med, cong Ci sp]
+26.1 +3.3 23 +25 +29 комфорт 1018.3 988.4
В 5 {11} 40 км 1/1 2000 м
[Cu med, cong Ci sp]
+25.4 +1.5 21 +24 +26 комфорт 1018.2 988.2
В 4 40 км 3/1 2000 м
[Cu med, cong Ac trans Ci sp]
+24.7 +2.8 24 +24 +24 комфорт 1018.0 988.0
ЮВ 2 {11} 45 км 1/0
[Ac trans Ci sp]
+22.7 +4.2 30 +23 +23 комфорт 1018.2 988.0 +20.0 +27.4
ЮВ 2 45 км н/о +20.0 +4.9 37 +21 +21 комфорт 1018.7 988.2
СВ 1 45 км н/о +15.3 +7.1 58 +16 +16 1019.3 988.3
В 2 35 км н/о +13.7 +6.5 62 +13 +13 1019.4 988.2
В 1 40 км н/о +13.8 +5.4 57 +14 +14 1019.3 988.1
СВ 1 45 км н/о +12.2 +5.4 63 +12 +12 1019.3 987.9
СВ 1 35 км н/о +12.1 +5.3 63 +12 +12 1018.9 987.5
В 2 50 км н/о +12.1 +4.8 61 +11 +11 1018.6 987.2
СВ 1 45 км н/о +12.5 +4.9 60 +13 +13 1018.3 987.0
С 1 35 км н/о +10.2 +5.4 72 +10 +10 1018.5 986.9
СВ 1 30 км н/о +12.7 +6.9 68 +13 +13 1018.3 987.0
В 1 40 км н/о +17.4 +8.0 54 +18 +18 1017.9 987.1
ЮВ 3 45 км 1/0
[Ac trans Ci fib]
+20.4 +7.0 42 +22 +26 комфорт 1017.5 987.0 +10.1 +22.7
ЮВ 4 30 км 1/0
[Ac trans Ci sp]
+22.8 +6.9 36 +24 +29 комфорт 1017.1 986.9
Ю 3 29 км 1/0
[Ac trans Ci sp]
+24.6 +8.1 35 +25 +35 комфорт 1016.9 986.9
ЮВ 4 29 км 1/0
[Ac trans Ci sp]
+25.8 +6.9 30 +26 +35 жарко 1016.7 986.8
Ю 5 30 км 3/1 2000 м
[Cu med, cong Ac trans Ci sp]
+26.0 +5.0 26 +25 +32 комфорт 1016.5 986.6
Ю 3 40 км 5/1 2000 м
[Cu med, cong Ac und Ci sp]
+25.1 +4.8 27 +25 +34 комфорт 1016.1 986.2
ЮВ 3 45 км 9/1 2000 м
[Cu med, cong Ac und Ci sp]
+24.1 +6.4 32 +24 +31 комфорт 1015.9 985.9
ЮВ 4 23 км 8/1 1500 м
[Sc diur, vesp Ac trans Cs]
+24.7 +6.0 30 +25 +29 комфорт 1015.5 985.5
ЮВ 4 30 км 8/1 1500 м
[Sc diur, vesp Ac trans Cs]
+25.1 +6.3 30 +25 +29 комфорт 1015.0 985.1
ЮВ 4 {10} 40 км 3/0
[Ac trans Cs]
+24.3 +6.1 31 +24 +28 комфорт 1014.8 984.8
Местоположение метеостанции Кельце (Польша): широта 50.82 долгота 20.70 высота над уровнем моря 261 м.
В архиве по умолчанию представлена погода в Кельце за последнюю неделю. Архивные данные за месяц целиком и за предыдущие месяцы, начиная с января 2011 года, Вы можете получить, выбрав интересующий диапазон дат из раскрывающегося списка и нажав кнопку "Найти!".
*Определитесь, кто Вы:
Внимание! Время в таблицах - всемирное. Для получения местного времени необходимо прибавить поправку, которая равна 1 ч.
Некоторые строки с данными для отдельных станций могут быть выделены курсивом. Это означает, что фактические данные отсутствуют по различным причинам, а приведенные значения являются расчетными модельными данными для данного пункта наблюдений.
Смотрите также архив погоды в соседних городах и на ближайших метеорологических станциях:
Партнеры нашего сайта:      
Пояснения к столбцам:
  • Ветер - указаны скорость ветра в м/с - средняя за 10 мин, порывы в срок и между сроками (в фигурных скобках) и направление, откуда дует ветер: С - северный,
  • СВ - северо-восточный, В - восточный, ЮВ - юго-восточный, Ю - южный, ЮЗ - юго-западный, З - западный, СЗ - северо-западный.
  • Видимость - горизонтальная дальность видимости в метрах или километрах. При видимости от 1 до 10 км при отсутствии осадков обычно наблюдается дымка, при ухудшении видимости до 1 км и менее - туман. В сухую погоду видимость может ухудшаться дымом, пылью или мглою.
  • Явления - указаны атмосферные явления, наблюдавшиеся в срок или в последний час перед сроком; фигурными скобками обозначены явления, наблюдавшиеся между сроками (за 1-3 часа до срока); квадратными скобками обозначены град или гололедные отложения с указанием их диаметра в мм.
  • Облачность - указаны через наклонную черту общая и нижняя облачность в баллах и высота нижней границы облаков в метрах; квадратными скобками обозначены формы облаков: Ci - перистые, Cs - перисто-слоистые, Cc - перисто-кучевые, Ac - высококучевые, As - высокослоистые, Sc - слоисто-кучевые, Ns - слоисто-дождевые, Cu - кучевые, Cb - кучево-дождевые. Подробнее классификацию облаков см. в Атласе облаков (PDF).
  • T - Температура воздуха - температура, измеренная на высоте 2 м над землей.
  • Td - Температура точки росы - температура, при понижении до которой содержащийся в воздухе водяной пар достигнет насыщения.
  • f - Относительная влажность воздуха - влажноcть воздуха, измеренная на высоте 2 м над землей.
  • Te - Эффективная температура - температура, которую ощущает одетый по сезону человек в тени. Характеристика душности погоды. При расчете учитывается влияние влажности воздуха и скорости ветра на теплоощущения человека.
  • Tes - Эффективная температура на солнце - температура, которую ощущает человек, с поправкой на солнечный нагрев. Характеристика знойности погоды. Зависит от высоты солнца над горизонтом, облачности и скорости ветра. Ночью, в пасмурную погоду, а также при ветре 12 м/с и более поправка равна нулю.
  • P - Атмосферное давление - приведенное к уровню моря атмосферное давление.
  • Po - Атмосферное давление - измеренное на уровне метеостанции атмосферное давление.
  • Tmin - Минимальная температура - минимум температуры воздуха на высоте 2 м над землей.
  • Tmax - Максимальная температура - максимум температуры воздуха на высоте 2 м над землей.
  • R - Количество осадков - Количество выпавших осадков за период времени, мм. При наведении курсора мыши на число - период времени, за который выпало указанное количество осадков.
  • R24 - Количество осадков - Количество выпавших осадков за 24 часа, мм.
  • S - Снежный покров - Высота снежного покрова, см. При наведении курсора мыши на число - состояние снежного покрова и степень покрытия местности в баллах.